When you browse on this site, cookies collect data to enhance your experience and personalize the content and advertising you see.
Visit our Privacy Policy to learn more. By continuing to use the site, you agree to this use of cookies and data.
  • En España
  • Lista de países
  • Para 7 días
  • Temperatura del agua
  • El tiempo en el mapa
  • Informadores
  • user-avatar
    Iniciar sesión

    Tiempo cada hora Krolevec

    Hoy, 6 Junio, Sábado

    Tiempo Temperatura Precipitaciones Viento Presión Humedad
    00:00 +14°C° 0.1 mm 3 mps 742 mmHg 95%
    01:00 +14°C° 0.1 mm 3 mps 742 mmHg 96%
    02:00 +14°C° 0 mm 3 mps 742 mmHg 96%
    03:00 +14°C° 0 mm 3 mps 743 mmHg 96%
    04:00 +14°C° 0 mm 4 mps 743 mmHg 96%
    05:00 +14°C° 0 mm 4 mps 743 mmHg 96%
    06:00 +15°C° 0 mm 4 mps 743 mmHg 94%
    07:00 +17°C° 0 mm 4 mps 743 mmHg 92%
    08:00 +19°C° 0 mm 4 mps 743 mmHg 90%
    09:00 +20°C° 0 mm 5 mps 744 mmHg 87%
    10:00 +21°C° 0 mm 5 mps 744 mmHg 84%
    11:00 +23°C° 0 mm 5 mps 744 mmHg 82%
    12:00 +23°C° 0.9 mm 5 mps 744 mmHg 81%
    13:00 +24°C° 0.9 mm 6 mps 744 mmHg 80%
    14:00 +24°C° 0.9 mm 6 mps 744 mmHg 79%
    15:00 +24°C° 2.1 mm 6 mps 744 mmHg 81%
    16:00 +25°C° 2.1 mm 5 mps 744 mmHg 83%
    17:00 +23°C° 2.1 mm 5 mps 744 mmHg 84%
    18:00 +22°C° 0.6 mm 4 mps 744 mmHg 87%
    19:00 +21°C° 0.6 mm 3 mps 744 mmHg 89%
    20:00 +20°C° 0.6 mm 3 mps 745 mmHg 91%
    21:00 +19°C° 0.2 mm 2 mps 745 mmHg 92%
    22:00 +18°C° 0.2 mm 2 mps 745 mmHg 92%
    23:00 +18°C° 0.2 mm 2 mps 745 mmHg 92%

    Mañana, 7 Junio, Domingo

    Tiempo Temperatura Precipitaciones Viento Presión Humedad
    00:00 +18°C° 0 mm 1 mps 745 mmHg 92%
    01:00 +18°C° 0 mm 1 mps 746 mmHg 93%
    02:00 +18°C° 0 mm 1 mps 746 mmHg 93%
    03:00 +18°C° 0 mm 1 mps 746 mmHg 93%
    04:00 +17°C° 0 mm 0 mps 746 mmHg 93%
    05:00 +17°C° 0 mm 0 mps 746 mmHg 92%
    06:00 +20°C° 0 mm 1 mps 747 mmHg 89%
    07:00 +22°C° 0 mm 1 mps 747 mmHg 86%
    08:00 +23°C° 0 mm 1 mps 747 mmHg 83%
    09:00 +24°C° 0 mm 2 mps 747 mmHg 80%
    10:00 +25°C° 0 mm 2 mps 747 mmHg 76%
    11:00 +26°C° 0 mm 2 mps 748 mmHg 72%
    12:00 +27°C° 0 mm 2 mps 747 mmHg 70%
    13:00 +27°C° 0 mm 2 mps 747 mmHg 69%
    14:00 +28°C° 0 mm 3 mps 747 mmHg 67%
    15:00 +27°C° 0 mm 2 mps 747 mmHg 69%
    16:00 +27°C° 0 mm 2 mps 747 mmHg 70%
    17:00 +27°C° 0 mm 2 mps 747 mmHg 72%
    18:00 +25°C° 0 mm 2 mps 747 mmHg 74%
    19:00 +23°C° 0 mm 1 mps 747 mmHg 76%
    20:00 +22°C° 0 mm 1 mps 747 mmHg 78%
    21:00 +21°C° 0 mm 1 mps 747 mmHg 81%
    22:00 +19°C° 0 mm 2 mps 747 mmHg 83%
    23:00 +19°C° 0 mm 2 mps 747 mmHg 85%

    Pasado mañana, 8 Junio, Lunes

    Tiempo Temperatura Precipitaciones Viento Presión Humedad
    00:00 +18°C° 0 mm 2 mps 747 mmHg 87%
    01:00 +19°C° 0 mm 1 mps 747 mmHg 88%
    02:00 +19°C° 0 mm 1 mps 748 mmHg 89%
    03:00 +19°C° 0 mm 1 mps 747 mmHg 89%
    04:00 +18°C° 0 mm 2 mps 747 mmHg 89%
    05:00 +18°C° 0 mm 2 mps 747 mmHg 89%
    06:00 +20°C° 0 mm 2 mps 747 mmHg 86%
    07:00 +21°C° 0 mm 2 mps 748 mmHg 83%
    08:00 +24°C° 0 mm 3 mps 748 mmHg 80%
    09:00 +25°C° 0 mm 3 mps 748 mmHg 76%
    10:00 +26°C° 0 mm 3 mps 748 mmHg 71%
    11:00 +27°C° 0 mm 3 mps 748 mmHg 67%
    12:00 +27°C° 0 mm 3 mps 748 mmHg 67%
    13:00 +27°C° 0 mm 3 mps 747 mmHg 66%
    14:00 +28°C° 0 mm 3 mps 747 mmHg 66%
    15:00 +28°C° 0 mm 3 mps 747 mmHg 68%
    16:00 +27°C° 0 mm 3 mps 747 mmHg 71%
    17:00 +27°C° 0 mm 2 mps 746 mmHg 73%
    18:00 +26°C° 0 mm 2 mps 746 mmHg 78%
    19:00 +24°C° 0 mm 2 mps 746 mmHg 82%
    20:00 +21°C° 0 mm 2 mps 746 mmHg 87%
    21:00 +21°C° 0 mm 2 mps 746 mmHg 88%
    22:00 +20°C° 0 mm 2 mps 746 mmHg 89%
    23:00 +19°C° 0 mm 2 mps 746 mmHg 91%

    9 Junio, Martes

    Tiempo Temperatura Precipitaciones Viento Presión Humedad
    00:00 +19°C° 0 mm 2 mps 746 mmHg 91%
    01:00 +19°C° 0 mm 2 mps 747 mmHg 92%
    02:00 +19°C° 0 mm 2 mps 747 mmHg 92%
    03:00 +19°C° 0 mm 2 mps 747 mmHg 92%
    04:00 +19°C° 0 mm 2 mps 746 mmHg 92%
    05:00 +19°C° 0 mm 2 mps 746 mmHg 92%
    06:00 +21°C° 0 mm 2 mps 747 mmHg 87%
    07:00 +23°C° 0 mm 2 mps 747 mmHg 83%
    08:00 +25°C° 0 mm 2 mps 747 mmHg 79%
    09:00 +26°C° 0 mm 2 mps 747 mmHg 75%
    10:00 +27°C° 0 mm 3 mps 747 mmHg 71%
    11:00 +28°C° 0 mm 3 mps 747 mmHg 67%
    12:00 +28°C° 0 mm 2 mps 747 mmHg 65%
    13:00 +29°C° 0 mm 2 mps 747 mmHg 63%
    14:00 +29°C° 0 mm 2 mps 747 mmHg 61%
    15:00 +29°C° 0.1 mm 2 mps 747 mmHg 64%
    16:00 +29°C° 0.1 mm 2 mps 746 mmHg 67%
    17:00 +28°C° 0.1 mm 2 mps 746 mmHg 70%
    18:00 +27°C° 0.2 mm 2 mps 746 mmHg 74%
    19:00 +25°C° 0.2 mm 2 mps 747 mmHg 78%
    20:00 +23°C° 0.2 mm 2 mps 747 mmHg 81%
    21:00 +21°C° 0 mm 2 mps 747 mmHg 82%
    22:00 +21°C° 0 mm 2 mps 747 mmHg 83%
    23:00 +21°C° 0 mm 1 mps 747 mmHg 84%

    10 Junio, Miércoles

    Tiempo Temperatura Precipitaciones Viento Presión Humedad
    00:00 +20°C° 0 mm 2 mps 747 mmHg 86%
    01:00 +19°C° 0 mm 2 mps 747 mmHg 87%
    02:00 +19°C° 0 mm 2 mps 746 mmHg 89%
    03:00 +19°C° 0 mm 2 mps 746 mmHg 89%
    04:00 +20°C° 0 mm 2 mps 747 mmHg 90%
    05:00 +20°C° 0 mm 2 mps 747 mmHg 90%
    06:00 +21°C° 0 mm 2 mps 747 mmHg 87%
    07:00 +24°C° 0 mm 2 mps 747 mmHg 84%
    08:00 +25°C° 0 mm 2 mps 747 mmHg 80%
    09:00 +26°C° 0.1 mm 2 mps 747 mmHg 75%
    10:00 +28°C° 0.1 mm 2 mps 747 mmHg 69%
    11:00 +29°C° 0.1 mm 2 mps 747 mmHg 63%
    12:00 +29°C° 0.2 mm 2 mps 747 mmHg 62%
    13:00 +29°C° 0.2 mm 3 mps 746 mmHg 62%
    14:00 +29°C° 0.2 mm 3 mps 746 mmHg 62%
    15:00 +29°C° 0.2 mm 2 mps 746 mmHg 65%
    16:00 +29°C° 0.2 mm 2 mps 746 mmHg 69%
    17:00 +28°C° 0.2 mm 2 mps 745 mmHg 73%
    18:00 +27°C° 0.1 mm 2 mps 745 mmHg 77%
    19:00 +25°C° 0.1 mm 2 mps 745 mmHg 80%
    20:00 +23°C° 0.1 mm 2 mps 745 mmHg 84%
    21:00 +23°C° 0 mm 2 mps 745 mmHg 85%
    22:00 +21°C° 0 mm 2 mps 745 mmHg 87%
    23:00 +20°C° 0 mm 2 mps 745 mmHg 89%

    11 Junio, Jueves

    Tiempo Temperatura Precipitaciones Viento Presión Humedad
    00:00 +20°C° 0 mm 2 mps 745 mmHg 90%
    01:00 +20°C° 0 mm 2 mps 745 mmHg 91%
    02:00 +19°C° 0 mm 2 mps 745 mmHg 92%
    03:00 +19°C° 0 mm 3 mps 745 mmHg 92%
    04:00 +20°C° 0 mm 3 mps 745 mmHg 92%
    05:00 +20°C° 0 mm 3 mps 745 mmHg 92%
    06:00 +21°C° 0 mm 3 mps 745 mmHg 89%
    07:00 +24°C° 0 mm 3 mps 745 mmHg 85%
    08:00 +25°C° 0 mm 3 mps 745 mmHg 82%
    09:00 +26°C° 0.1 mm 3 mps 745 mmHg 77%
    10:00 +28°C° 0.1 mm 3 mps 745 mmHg 73%
    11:00 +29°C° 0.1 mm 3 mps 744 mmHg 68%
    12:00 +29°C° 0 mm 3 mps 744 mmHg 68%
    13:00 +29°C° 0 mm 4 mps 744 mmHg 67%
    14:00 +30°C° 0 mm 4 mps 743 mmHg 66%
    15:00 +29°C° 0 mm 3 mps 743 mmHg 70%
    16:00 +29°C° 0 mm 3 mps 743 mmHg 73%
    17:00 +29°C° 0 mm 3 mps 743 mmHg 76%
    18:00 +27°C° 0.1 mm 3 mps 743 mmHg 82%
    19:00 +26°C° 0.1 mm 3 mps 743 mmHg 87%
    20:00 +24°C° 0.1 mm 3 mps 743 mmHg 92%
    21:00 +22°C° 0 mm 3 mps 743 mmHg 93%
    22:00 +22°C° 0 mm 3 mps 743 mmHg 94%
    23:00 +21°C° 0 mm 3 mps 743 mmHg 94%
    Mostrar más